Location: Tamazert
(32.6352°N, 5.2072°W)
Time: 00:10:59
(UTC+00:00)

Altair - Pass Details

Date: 09 October 2022
Orbit: 1501 x 1682 km, 47.2° (Epoch: 05 December)

Event Time Altitude Azimuth Distance (km) Brightness Sun altitude
Exits shadow 04:09:11 47° 289° (WNW) 2,018 7.7 -28.3°
Maximum altitude 04:11:32 56° 332° (NNW) 1,850 7.7 -27.8°
Drops below altitude 10° 04:21:16 10° 49° (NE) 3,891 10.4 -25.8°
Sets 04:24:35 0° 54° (NE) 4,899 11.1 -25.1°
